CZ-6A DEB, 56631

Orbit data source: Space-Track

CZ-6A DEB, 56631 is space debris in SSO originally from a launch on Fri, 11 Nov 2022 UTC launched from the Taiyaun Space Center, China (TSC). Debris objects in space refer to the collection of defunct objects orbiting the Earth. Examples of debris include non-operational satellites, rocket bodies, and fragments generated from explosions, collisions, or faulty payload assembly.

Loading next visibility...
Identifier
56631, 2022-151AFF
Orbit
SSO
Country
Flag of CNCN / PRC
Related business
Manufacturer
SAST
Mission
Spacecraft
Bus & Motor
Unknown
Mass
Unknown
Launch date (UTC)
2022-11-11 (4 years ago)
Launch vehicle
Unknown
Launch site
Taiyaun Space Center, China (TSC)
Object type
Payload
Rocket body
Debris
Shape & HBR
Unknown shape, 0.1 m
Radar Cross Section
Small (<0.1 m²)

Expand to show TLE details & history
Last TLE update: 3 days ago

TLE from 3 days ago
0 CZ-6A DEB
1 56631U 22151AFF 26170.51647305  .00213454  00000-0  57273-2 0  9994
2 56631  98.6160 264.7097 0024418 199.6687 160.3614 15.36806240168969
Epoch: 2026-06-19T12:23Z
TLE epoch observation values (Epoch: 2026-06-19T12:23:43.271Z)
Latitude
-0.00004°
Longitude
171.03509°
Altitude
474.36 km
Speed
7.62 km/s
True Right ascension
17h 38m 50s
True Declination
0° 00' 00"
Sunlit
Object was in full shadow at epoch
Visualization orbit readout
Latitude
Unknown
Longitude
Unknown
Altitude
Unknown
Speed
Unknown
Apparent Right ascension
Unknown
Apparent Declination
Unknown
Sunlit
N/A
Visualization observer readout
Local Sidereal Time
21:56:54
Azimuth
Unknown
Elevation
Unknown
Doppler factor
Unknown
Orbital elements
Apogee altitude
469.24 km
Perigee altitude
435.881 km
Semi-major axis
6,830.697 km
Eccentricity
0.00244
Inclination
98.616°
RAAN
264.7097°
Arg. of periapsis
199.6687°
True anomaly
160.45517°
Mean anomaly
160.3614°
Eccentric anomaly
160.40831°
Mean motion
3.84455 °/min
Orbital period
93.64 mins
BSTAR
0.0057273
Loading maneuver chart data...
Computing Atmospheric mass density...
Loading historical data...
Loading historical data...
Loading historical data...
Loading historical data...
Loading historical data...
Loading historical data...
Loading historical data...

Documentation

Showing up to 5 results
|